SCP
0 0 0 0 0 0 0 0 0 0 0 0 0 -0 0 0 0 0 0 0 0 0 0 0 0 0 0 0 0 0 0 0
0 0 0 0 0 0 0 0 0 0 0 -0 0 0 0 0 0 0 0 0 0 0 0 0 0 0 0 0 0 0 0 0
0 0 0 0 0 0 0 0 0 0 0 0 0 -0 -0 0 0 0 0 0 0 0 0 0 0 0 0 0 0 0 0 0
0 0 0 0 0 0 0 0 0 0 0 0 0 -0 -0 -0 -0 -0 0 0 0 0 0 0 0 0 0 0 0 0 0 0
0 0 0 0 0 0 0 0 0 0 0 0 0 0 0 0 0 0 -0 -0 -0 0 -0 -0 -0 -0 0 0 -0 -0 0 0
0 0 0 0 0 0 0 0 0 0 0 0 0 0 0 0 0 0 0 0 -0 0 0 0 0 0 0 0 0 0 0 0
0 0 0 0 0 0 0 0 0 0 0 0 0 0 0 0 0 0 0 0 0 0 -0 -0 -0 -0 -0 -0 -0 0 0 0
-0 0 0 0 0 0 0 0 0 0 0 0 0 0 0 0 -0 -0 -0 0 0 0 -0 -0 -0 -0 -0 -0 0 0 0 0
-0 -0 0 0 0 0 0 0 0 0 0 0 0 0 0 0 0 0 0 0 0 0 -0 -0 -0 -0 -0 -0 0 0 0 0
-0 -0 -0 -0 0 0 0 0 0 0 0 0 0 0 0 0 0 0 0 0 0 0 0 0 0 -0 -0 -0 0 0 -0 0
0 0 -0 -0 -0 -0 0 0 0 0 0 0 0 0 0 0 -0 -0 -0 0 0 0 0 0 0 0 -0 0 0 0 0 0
0 0 0 0 -0 0 0 -0 0 0 0 0 0 0 0 0 -0 -0 -0 -0 -0 -0 -0 -0 0 0 0 -0 0 0 0 0
0 0 0 0 0 0 0 0 0 0 0 0 0 0 0 0 0 0 -0 -0 -0 -0 -0 -0 -0 -0 -0 -0 -0 0 0 0
0 0 0 0 0 0 0 0 0 0 0 0 0 0 0 0 0 0 0 0 -0 -0 -0 -0 -0 -0 -0 -0 0 0 0 0
0 0 0 0 0 0 0 0 0 0 0 0 0 0 0 0 0 0 0 0 0 0 0 -0 -0 -0 -0 0 0 0 0 0
0 0 0 0 0 0 0 0 0 0 0 0 0 0 0 0 0 0 0 0 0 0 0 0 0 0 0 0 0 0 0 0
0 0 0 0 0 0 0 0 0 0 0 0 0 0 0 0 0 0 0 0 0 0 0 0 0 0 0 0 0 0 0 0
0 0 0 0 0 0 0 0 0 0 0 0 0 0 0 0 0 0 0 0 0 0 0 0 0 0 0 0 0 0 0 0
0 0 0 0 0 0 0 0 0 0 0 0 0 0 0 0 0 0 0 0 0 0 0 0 0 0 0 0 0 0 0 0
0 0 0 0 0 0 0 0 0 0 0 0 0 0 0 0 0 0 0 0 0 0 0 0 0 0 0 0 0 0 0 0
Wind_Speed_500mb
22 21 16 16 17 16 15 14 11 14 11 8 10 7 4 2 5 7 13 22 25 18 10 3 29 38 33 34 34 38 39 41
16 17 15 11 14 13 12 10 11 13 12 12 11 7 3 4 7 9 12 14 29 21 11 6 23 38 36 29 31 30 35 22
13 11 12 11 11 11 8 7 10 14 15 14 13 9 7 2 5 11 15 16 25 29 23 17 26 26 36 36 33 14 16 20
12 10 10 9 12 7 5 7 10 14 16 17 19 17 12 6 4 11 17 19 20 27 29 24 29 29 26 20 18 31 26 21
12 10 9 8 6 6 6 6 9 12 15 16 21 19 17 14 11 14 19 20 21 25 25 26 25 22 18 17 17 17 18 21
13 11 9 4 5 4 6 8 10 12 15 15 20 23 23 22 21 24 22 23 25 25 25 23 22 20 17 17 16 14 13 15
14 10 7 3 2 7 15 13 9 11 12 16 19 24 24 26 24 25 26 27 26 26 24 22 20 15 13 12 16 18 17 13
14 10 8 7 8 10 15 14 10 10 9 12 15 24 24 24 26 27 26 28 29 28 26 24 19 17 22 21 16 15 13 10
18 13 12 12 12 15 14 12 8 8 10 10 13 13 21 22 22 22 24 25 25 23 25 24 21 23 19 16 16 14 11 9
18 16 13 14 14 14 14 10 8 7 7 8 9 11 13 16 17 18 19 17 19 20 19 18 19 15 11 16 16 15 12 7
21 21 18 16 16 15 12 9 7 7 7 7 8 10 11 12 13 14 16 18 18 18 14 12 15 12 14 13 18 16 14 11
21 20 19 18 17 15 14 10 9 6 4 5 7 8 10 11 11 12 14 15 15 19 18 18 18 16 10 10 13 13 14 15
23 24 23 22 19 17 13 16 12 9 8 6 4 5 7 8 12 15 15 14 14 16 15 14 14 13 13 13 15 16 17 16
24 25 24 21 19 17 18 18 15 13 11 9 8 7 7 9 12 14 17 21 21 20 20 20 19 18 19 19 20 20 20 20
25 25 24 22 20 18 24 23 20 18 16 15 12 11 10 10 12 13 15 18 22 26 25 25 26 26 25 26 26 25 25 25
24 23 21 23 22 23 25 26 23 21 21 21 19 17 17 16 16 15 18 20 23 25 30 31 29 25 29 28 27 25 25 30
26 28 24 25 24 27 29 30 30 29 28 26 25 25 25 25 24 22 21 24 25 27 29 30 28 32 34 33 33 33 35 38
33 29 28 28 26 26 30 33 35 33 31 31 33 32 32 31 32 32 31 33 34 33 32 31 29 31 35 38 40 41 44 44
37 39 35 36 29 22 29 32 33 31 31 33 34 35 35 35 36 38 39 43 43 41 42 42 40 38 38 41 46 50 52 48
42 45 42 42 35 36 35 31 27 27 28 27 30 32 34 35 38 41 44 47 49 47 53 49 49 50 51 52 58 58 57 52
Wind_Direction_500mb
314 320 325 327 333 348 354 358 17 17 34 27 17 16 331 277 226 183 171 190 178 174 167 230 203 196 197 209 205 207 203 210
308 318 319 332 336 351 5 16 24 29 27 27 32 359 16 186 182 189 196 182 176 175 175 227 198 196 195 188 195 206 207 190
308 315 318 328 353 354 17 58 36 29 23 27 39 36 6 42 163 181 196 184 161 171 155 162 141 175 198 210 209 206 192 183
299 298 312 340 336 3 38 71 45 37 33 32 42 31 42 49 129 166 184 180 173 154 157 160 144 145 141 149 148 172 190 218
277 290 290 319 338 340 98 100 62 57 48 52 59 49 50 65 83 144 162 171 169 164 158 163 160 164 171 177 189 221 225 222
256 268 271 293 336 150 139 122 97 70 54 55 67 67 65 65 80 104 120 140 155 157 153 152 158 155 165 172 189 190 172 168
219 242 240 191 39 152 153 146 109 80 66 59 79 78 74 80 91 100 107 118 127 136 144 151 151 149 164 149 146 149 145 160
195 207 199 169 137 148 150 150 135 111 100 84 79 102 91 90 98 101 109 118 126 134 142 150 153 152 145 138 144 150 154 169
192 195 199 177 157 158 154 147 138 116 107 118 105 102 114 110 105 113 116 128 133 140 141 145 147 148 150 164 162 178 195 174
194 191 193 190 180 172 168 158 148 129 111 127 145 128 125 124 136 133 133 141 140 143 145 156 158 145 155 162 159 175 174 194
203 200 191 196 195 194 193 186 170 152 125 120 131 160 157 147 146 147 158 168 177 172 182 179 161 178 189 186 201 203 222 227
206 204 194 193 200 201 208 199 206 192 162 146 135 153 175 192 189 179 179 177 182 189 202 203 196 201 228 229 224 226 241 251
201 199 202 199 200 205 200 215 219 224 232 229 213 199 184 194 210 214 213 204 197 197 203 212 222 223 227 240 242 246 254 254
195 197 203 209 208 202 195 221 225 227 230 236 247 244 242 234 219 222 229 230 228 230 229 229 236 239 244 252 254 255 259 261
205 206 207 209 213 208 216 223 226 230 238 243 239 248 255 257 263 255 240 240 241 242 246 247 247 252 258 256 258 254 255 259
223 225 221 221 218 221 231 240 243 243 244 251 254 256 257 256 258 264 266 263 257 252 250 251 251 250 248 249 251 251 252 255
235 236 228 233 230 232 237 245 250 254 255 260 263 265 267 268 267 266 263 270 271 267 266 265 264 260 259 257 256 258 256 254
244 244 240 240 236 233 240 245 249 254 258 262 263 265 267 269 270 270 270 265 265 268 271 270 267 267 270 269 267 262 259 257
240 243 244 241 243 254 253 249 250 254 254 257 261 264 267 271 275 276 271 268 268 267 266 264 263 261 258 261 264 265 267 270
241 241 238 240 247 273 258 245 246 247 255 258 259 261 264 267 272 276 279 279 278 270 266 266 266 264 259 256 258 264 267 271
Wind_Speed_850mb
22 21 16 16 17 16 15 14 11 14 11 8 10 7 4 2 5 7 13 22 25 18 10 3 29 38 33 34 34 38 39 41
16 17 15 11 14 13 12 10 11 13 12 12 11 7 3 4 7 9 12 14 29 21 11 6 23 38 36 29 31 30 35 22
13 11 12 11 11 11 8 7 10 14 15 14 13 9 7 2 5 11 15 16 25 29 23 17 26 26 36 36 33 14 16 20
12 10 10 9 12 7 5 7 10 14 16 17 19 17 12 6 4 11 17 19 20 27 29 24 29 29 26 20 18 31 26 21
12 10 9 8 6 6 6 6 9 12 15 16 21 19 17 14 11 14 19 20 21 25 25 26 25 22 18 17 17 17 18 21
13 11 9 4 5 4 6 8 10 12 15 15 20 23 23 22 21 24 22 23 25 25 25 23 22 20 17 17 16 14 13 15
14 10 7 3 2 7 15 13 9 11 12 16 19 24 24 26 24 25 26 27 26 26 24 22 20 15 13 12 16 18 17 13
14 10 8 7 8 10 15 14 10 10 9 12 15 24 24 24 26 27 26 28 29 28 26 24 19 17 22 21 16 15 13 10
18 13 12 12 12 15 14 12 8 8 10 10 13 13 21 22 22 22 24 25 25 23 25 24 21 23 19 16 16 14 11 9
18 16 13 14 14 14 14 10 8 7 7 8 9 11 13 16 17 18 19 17 19 20 19 18 19 15 11 16 16 15 12 7
21 21 18 16 16 15 12 9 7 7 7 7 8 10 11 12 13 14 16 18 18 18 14 12 15 12 14 13 18 16 14 11
21 20 19 18 17 15 14 10 9 6 4 5 7 8 10 11 11 12 14 15 15 19 18 18 18 16 10 10 13 13 14 15
23 24 23 22 19 17 13 16 12 9 8 6 4 5 7 8 12 15 15 14 14 16 15 14 14 13 13 13 15 16 17 16
24 25 24 21 19 17 18 18 15 13 11 9 8 7 7 9 12 14 17 21 21 20 20 20 19 18 19 19 20 20 20 20
25 25 24 22 20 18 24 23 20 18 16 15 12 11 10 10 12 13 15 18 22 26 25 25 26 26 25 26 26 25 25 25
24 23 21 23 22 23 25 26 23 21 21 21 19 17 17 16 16 15 18 20 23 25 30 31 29 25 29 28 27 25 25 30
26 28 24 25 24 27 29 30 30 29 28 26 25 25 25 25 24 22 21 24 25 27 29 30 28 32 34 33 33 33 35 38
33 29 28 28 26 26 30 33 35 33 31 31 33 32 32 31 32 32 31 33 34 33 32 31 29 31 35 38 40 41 44 44
37 39 35 36 29 22 29 32 33 31 31 33 34 35 35 35 36 38 39 43 43 41 42 42 40 38 38 41 46 50 52 48
42 45 42 42 35 36 35 31 27 27 28 27 30 32 34 35 38 41 44 47 49 47 53 49 49 50 51 52 58 58 57 52
Wind_Direction_850mb
314 320 325 327 333 348 354 358 17 17 34 27 17 16 331 277 226 183 171 190 178 174 167 230 203 196 197 209 205 207 203 210
308 318 319 332 336 351 5 16 24 29 27 27 32 359 16 186 182 189 196 182 176 175 175 227 198 196 195 188 195 206 207 190
308 315 318 328 353 354 17 58 36 29 23 27 39 36 6 42 163 181 196 184 161 171 155 162 141 175 198 210 209 206 192 183
299 298 312 340 336 3 38 71 45 37 33 32 42 31 42 49 129 166 184 180 173 154 157 160 144 145 141 149 148 172 190 218
277 290 290 319 338 340 98 100 62 57 48 52 59 49 50 65 83 144 162 171 169 164 158 163 160 164 171 177 189 221 225 222
256 268 271 293 336 150 139 122 97 70 54 55 67 67 65 65 80 104 120 140 155 157 153 152 158 155 165 172 189 190 172 168
219 242 240 191 39 152 153 146 109 80 66 59 79 78 74 80 91 100 107 118 127 136 144 151 151 149 164 149 146 149 145 160
195 207 199 169 137 148 150 150 135 111 100 84 79 102 91 90 98 101 109 118 126 134 142 150 153 152 145 138 144 150 154 169
192 195 199 177 157 158 154 147 138 116 107 118 105 102 114 110 105 113 116 128 133 140 141 145 147 148 150 164 162 178 195 174
194 191 193 190 180 172 168 158 148 129 111 127 145 128 125 124 136 133 133 141 140 143 145 156 158 145 155 162 159 175 174 194
203 200 191 196 195 194 193 186 170 152 125 120 131 160 157 147 146 147 158 168 177 172 182 179 161 178 189 186 201 203 222 227
206 204 194 193 200 201 208 199 206 192 162 146 135 153 175 192 189 179 179 177 182 189 202 203 196 201 228 229 224 226 241 251
201 199 202 199 200 205 200 215 219 224 232 229 213 199 184 194 210 214 213 204 197 197 203 212 222 223 227 240 242 246 254 254
195 197 203 209 208 202 195 221 225 227 230 236 247 244 242 234 219 222 229 230 228 230 229 229 236 239 244 252 254 255 259 261
205 206 207 209 213 208 216 223 226 230 238 243 239 248 255 257 263 255 240 240 241 242 246 247 247 252 258 256 258 254 255 259
223 225 221 221 218 221 231 240 243 243 244 251 254 256 257 256 258 264 266 263 257 252 250 251 251 250 248 249 251 251 252 255
235 236 228 233 230 232 237 245 250 254 255 260 263 265 267 268 267 266 263 270 271 267 266 265 264 260 259 257 256 258 256 254
244 244 240 240 236 233 240 245 249 254 258 262 263 265 267 269 270 270 270 265 265 268 271 270 267 267 270 269 267 262 259 257
240 243 244 241 243 254 253 249 250 254 254 257 261 264 267 271 275 276 271 268 268 267 266 264 263 261 258 261 264 265 267 270
241 241 238 240 247 273 258 245 246 247 255 258 259 261 264 267 272 276 279 279 278 270 266 266 266 264 259 256 258 264 267 271